Temp
64 66 66 67 67 66 65 67 66 65 65 64 62 62 63 66 66 66 66 65 65 65 63 62 61 61 60 60 59 56 54 52 52 49 48 48 48 49 49 50 50 51 52
60 64 64 64 66 67 66 66 66 65 65 65 65 64 66 67 68 67 66 66 66 66 64 62 61 61 61 58 58 56 53 52 53 50 48 45 47 48 49 47 49 50 51
52 61 63 63 65 66 66 66 67 65 66 66 64 62 66 63 64 65 65 65 66 66 66 63 63 60 60 59 58 58 57 51 51 53 50 44 44 44 46 47 46 49 48
47 51 58 62 63 64 66 66 65 65 65 65 64 64 63 63 65 65 66 66 66 65 65 64 63 63 60 58 57 59 57 55 54 51 54 50 49 45 44 46 46 47 48
44 44 48 52 53 57 62 64 66 65 65 65 65 64 64 65 61 63 64 64 64 64 65 64 62 62 61 59 58 57 57 57 56 54 51 50 49 48 46 44 45 45 47
42 43 46 49 49 50 52 57 64 64 65 64 65 64 63 62 61 60 61 62 62 63 63 62 62 62 62 60 59 57 58 58 56 59 55 53 51 49 48 45 44 45 47
40 41 41 43 47 47 47 51 55 55 63 63 63 63 63 62 62 62 62 61 61 61 62 63 61 61 62 60 59 58 57 58 57 57 58 59 55 54 53 51 47 47 48
40 40 41 42 44 46 47 46 50 51 54 54 60 62 62 61 61 62 62 63 63 64 63 63 63 63 61 60 59 60 60 58 58 57 58 59 59 58 57 54 52 46 46
38 40 40 42 42 43 45 45 46 49 49 52 53 54 57 62 62 61 61 63 63 63 62 63 63 62 61 61 60 60 59 59 59 59 58 58 60 59 60 59 58 56 52
36 39 39 40 42 43 44 45 43 45 48 48 50 52 53 54 58 61 62 62 63 62 62 61 62 63 62 61 60 60 60 59 60 60 60 59 60 60 60 59 59 58 57
34 37 39 40 41 42 42 43 42 42 44 45 47 49 51 53 55 59 62 62 62 63 63 63 62 62 62 62 61 61 61 59 60 60 60 60 61 60 60 58 59 58 57
33 36 38 38 39 39 40 40 42 42 43 44 44 45 47 51 53 55 56 61 61 62 63 64 62 63 63 63 62 61 61 60 59 60 59 59 60 59 60 58 58 57 57
32 33 36 36 37 38 37 38 40 41 43 43 43 43 45 47 50 50 54 57 61 62 62 63 64 62 62 63 63 62 61 62 61 61 60 60 59 58 59 58 58 58 59
32 33 33 35 36 37 38 38 39 40 40 41 41 41 43 44 46 50 52 54 56 61 62 62 63 64 64 64 64 63 62 62 62 62 61 61 60 60 60 59 58 58 58
33 33 33 33 35 36 37 38 39 40 41 40 40 41 43 45 47 48 51 53 56 58 63 62 61 62 62 63 63 63 62 62 62 62 62 62 60 56 57 60 59 59 58
31 33 33 33 34 35 35 37 37 38 40 41 42 44 45 46 47 48 49 51 53 56 58 62 62 61 61 52 48 56 62 62 62 61 62 63 54 54 48 48 49 56 58
30 32 33 33 33 34 36 34 36 38 39 42 44 45 46 46 47 48 50 53 50 52 54 58 62 62 62 49 48 46 60 62 62 62 62 62 63 54 60 51 45 45 45
30 32 33 33 34 35 35 35 36 38 40 41 43 45 46 46 46 48 49 52 52 52 55 59 62 62 62 48 46 46 55 60 62 63 63 62 62 62 60 60 59 57 56
29 30 33 33 35 35 35 35 36 37 39 39 41 43 44 46 47 48 49 51 51 52 55 60 62 61 61 43 41 44 54 57 58 62 63 63 62 55 49 58 59 59 59
28 30 32 33 34 34 34 34 35 35 36 37 40 44 45 45 44 44 45 46 48 51 54 57 56 46 46 38 39 40 52 54 57 60 61 50 55 49 46 55 58 57 59
30 32 30 30 32 33 34 33 34 33 36 37 41 43 42 42 41 41 42 42 44 45 45 46 45 44 42 41 38 38 44 45 46 50 56 60 47 45 46 45 58 58 58
31 32 32 32 34 34 33 32 33 33 37 36 38 39 40 40 39 38 38 39 40 39 40 40 40 41 40 37 37 37 37 38 42 46 49 51 44 42 41 41 42 41 41
34 34 31 31 33 34 33 32 32 33 34 35 35 37 38 38 38 36 35 35 36 35 35 36 35 35 37 37 36 37 37 37 38 43 43 39 39 39 42 42 38 36 47
34 35 31 30 31 33 34 34 36 36 35 33 32 34 35 36 35 37 35 33 33 33 33 33 33 33 34 34 35 37 36 36 39 38 43 39 36 37 39 43 47 50 50
32 32 29 29 31 33 33 35 36 36 35 35 34 33 33 35 36 35 34 33 33 32 31 32 33 31 31 32 35 35 35 35 35 38 40 38 38 38 39 41 42 43 43
32 30 30 30 32 33 33 34 36 35 33 32 32 32 33 34 35 35 35 34 34 35 34 34 33 34 34 34 35 35 36 35 35 36 34 33 33 33 34 35 36 38 38
MSLP
1013.34 1013.32 1013.80 1014.48 1014.93 1015.35 1015.89 1016.26 1016.75 1017.37 1018.17 1018.84 1019.60 1020.11 1020.37 1020.79 1021.25 1021.67 1022.10 1022.60 1023.11 1023.55 1024.06 1024.56 1024.98 1025.22 1025.56 1026.04 1026.58 1027.27 1027.66 1028.40 1028.69 1029.46 1030.25 1030.28 1030.32 1030.28 1030.16 1030.02 1030.08 1030.02 1029.92
1014.28 1013.38 1013.73 1014.15 1014.66 1014.85 1015.19 1015.87 1016.43 1017.17 1017.95 1018.39 1019.09 1019.60 1020.10 1020.49 1020.46 1020.99 1021.66 1021.98 1022.54 1023.09 1023.69 1024.31 1024.85 1025.23 1025.65 1026.04 1026.39 1026.60 1027.68 1028.23 1028.50 1029.10 1029.98 1030.58 1030.57 1030.18 1029.99 1030.18 1030.09 1029.98 1029.82
1017.03 1014.84 1013.60 1013.76 1013.97 1014.20 1014.68 1015.23 1015.75 1016.70 1017.39 1018.13 1018.78 1019.43 1019.90 1020.34 1020.75 1020.82 1021.11 1021.37 1021.82 1022.56 1023.15 1023.84 1024.36 1024.98 1025.41 1025.95 1026.40 1026.49 1026.67 1027.49 1028.19 1028.13 1028.60 1030.01 1029.82 1029.93 1029.78 1029.78 1029.86 1029.75 1029.89
1019.42 1017.68 1016.17 1014.59 1013.81 1013.88 1013.90 1014.08 1015.13 1015.88 1016.50 1017.28 1017.49 1018.79 1019.05 1019.47 1019.80 1020.27 1020.66 1021.02 1021.64 1022.21 1022.76 1023.31 1023.82 1024.35 1024.98 1025.70 1026.15 1026.29 1026.50 1026.93 1027.70 1028.23 1027.99 1028.20 1028.56 1029.31 1029.81 1029.48 1029.39 1029.47 1029.51
1022.14 1020.48 1019.73 1017.58 1016.73 1015.93 1015.15 1014.42 1014.57 1015.47 1016.11 1016.42 1016.73 1018.56 1018.74 1019.01 1019.66 1020.22 1020.46 1020.87 1021.37 1021.94 1022.39 1022.92 1023.43 1023.86 1024.29 1024.79 1025.53 1026.14 1026.36 1026.70 1027.09 1027.41 1027.81 1028.24 1028.35 1028.44 1028.99 1029.19 1029.03 1029.22 1028.77
1023.31 1022.51 1021.35 1019.56 1018.06 1017.60 1016.59 1016.01 1015.66 1015.87 1016.33 1017.02 1017.33 1017.87 1018.02 1018.66 1019.46 1019.97 1020.31 1020.66 1021.28 1021.58 1022.08 1022.61 1023.06 1023.36 1023.80 1024.28 1024.77 1025.29 1025.60 1026.08 1026.49 1026.78 1026.99 1027.20 1027.62 1028.01 1028.33 1028.72 1028.61 1028.56 1028.05
1024.58 1023.31 1022.01 1020.86 1019.76 1019.08 1018.56 1017.61 1017.15 1017.12 1016.80 1017.24 1017.55 1017.81 1017.91 1018.24 1018.36 1018.94 1019.69 1020.29 1020.88 1021.28 1021.67 1021.99 1022.57 1022.96 1023.29 1023.73 1024.12 1024.65 1024.99 1025.34 1025.79 1026.02 1026.27 1026.53 1026.70 1026.80 1027.15 1027.56 1027.91 1028.08 1027.64
1025.68 1024.53 1023.53 1022.64 1021.68 1020.85 1019.89 1019.25 1018.76 1018.43 1018.23 1018.21 1018.04 1018.14 1018.13 1018.14 1018.54 1018.86 1019.06 1019.55 1019.89 1020.32 1020.79 1021.10 1021.67 1022.11 1022.51 1022.97 1023.49 1023.97 1024.27 1024.51 1024.61 1025.06 1025.45 1025.63 1025.79 1026.10 1026.24 1026.44 1027.06 1027.45 1027.33
1026.33 1025.28 1024.30 1023.72 1022.84 1022.06 1021.38 1020.80 1020.11 1019.73 1019.51 1019.36 1019.01 1018.96 1018.80 1018.52 1018.69 1018.86 1019.04 1019.20 1019.39 1019.72 1020.15 1020.48 1020.96 1021.51 1021.89 1022.20 1022.70 1023.13 1023.45 1023.85 1024.01 1024.15 1024.57 1024.84 1024.89 1025.06 1025.29 1025.51 1025.76 1026.07 1026.45
1027.11 1025.82 1024.77 1024.19 1023.52 1023.01 1022.62 1021.89 1021.58 1020.99 1020.45 1020.30 1020.15 1019.63 1019.24 1019.05 1018.99 1018.80 1019.01 1019.13 1019.06 1019.23 1019.52 1019.94 1020.24 1020.72 1021.13 1021.47 1021.95 1022.42 1022.55 1023.00 1023.26 1023.34 1023.58 1023.90 1024.02 1024.04 1024.10 1024.35 1024.73 1025.01 1025.06
1027.52 1026.34 1025.42 1024.79 1024.35 1023.77 1023.09 1022.91 1022.45 1021.83 1021.42 1021.22 1020.84 1020.21 1019.94 1019.26 1019.06 1018.90 1018.70 1018.85 1018.91 1019.05 1019.13 1019.18 1019.61 1020.03 1020.43 1020.71 1021.22 1021.45 1021.81 1022.22 1022.21 1022.56 1022.67 1022.64 1022.92 1023.24 1023.38 1023.56 1023.64 1023.70 1023.99
1027.39 1026.75 1025.94 1025.27 1024.71 1024.35 1024.03 1023.35 1022.88 1022.62 1022.26 1021.82 1021.38 1020.86 1020.50 1019.78 1019.23 1018.99 1018.92 1018.68 1018.58 1018.54 1018.84 1018.90 1019.24 1019.41 1019.59 1020.09 1020.37 1020.64 1020.92 1021.22 1021.44 1021.43 1021.84 1021.88 1022.14 1022.18 1022.27 1022.58 1022.58 1022.67 1022.53
1027.21 1026.91 1026.20 1025.63 1025.42 1024.56 1024.01 1023.69 1023.05 1022.49 1022.35 1022.16 1021.89 1021.52 1020.97 1020.13 1019.82 1019.07 1018.90 1018.69 1018.55 1018.26 1018.26 1018.54 1018.60 1018.77 1019.01 1019.22 1019.55 1019.70 1020.04 1020.28 1020.29 1020.43 1020.66 1020.62 1020.87 1021.19 1021.17 1021.31 1021.49 1021.58 1021.56
1027.80 1027.31 1027.68 1026.39 1025.35 1024.84 1024.32 1023.75 1023.35 1022.97 1022.62 1022.14 1021.79 1021.53 1021.21 1020.46 1019.66 1019.30 1018.88 1018.51 1018.25 1018.10 1017.78 1017.90 1018.05 1018.07 1018.10 1018.23 1018.50 1018.85 1019.10 1019.24 1019.36 1019.45 1019.71 1019.74 1019.79 1019.76 1019.86 1020.24 1020.30 1020.42 1020.51
1027.86 1028.54 1027.88 1025.73 1025.79 1025.85 1025.42 1024.62 1023.55 1023.15 1022.81 1022.25 1021.61 1021.10 1020.70 1020.30 1019.72 1019.14 1018.56 1018.29 1017.87 1017.66 1017.45 1017.24 1017.34 1017.48 1017.49 1017.51 1017.78 1017.99 1018.09 1018.10 1018.23 1018.28 1018.43 1018.45 1018.39 1018.40 1018.57 1018.91 1019.10 1019.37 1019.26
1028.70 1028.13 1027.39 1025.64 1026.66 1026.10 1025.46 1024.59 1023.75 1023.18 1022.81 1022.43 1021.61 1020.79 1020.31 1019.81 1019.22 1018.71 1018.38 1018.04 1017.56 1017.22 1016.98 1016.64 1016.57 1016.55 1016.67 1016.72 1016.83 1016.89 1017.06 1017.04 1016.96 1016.91 1016.95 1017.14 1017.18 1017.32 1017.37 1017.61 1017.64 1017.67 1018.04
1028.84 1027.82 1026.95 1027.64 1027.92 1026.64 1025.93 1024.55 1023.99 1023.54 1022.85 1022.16 1020.95 1020.27 1020.02 1019.50 1018.71 1018.18 1017.71 1017.39 1017.36 1017.14 1016.63 1016.08 1015.75 1015.67 1015.79 1015.95 1016.04 1015.97 1016.10 1015.95 1015.74 1015.70 1015.75 1015.80 1015.88 1016.06 1016.38 1016.51 1016.70 1016.72 1016.79
1029.32 1028.72 1028.14 1026.98 1025.88 1025.37 1024.74 1024.46 1023.92 1023.21 1022.11 1021.25 1020.22 1019.42 1019.32 1018.91 1018.42 1017.92 1017.37 1017.08 1016.94 1016.70 1016.21 1015.55 1015.07 1014.98 1015.03 1015.25 1015.23 1015.01 1015.30 1015.13 1014.92 1014.84 1014.82 1014.77 1014.72 1014.93 1015.26 1015.35 1015.15 1015.01 1015.02
1029.95 1029.37 1027.79 1026.90 1026.24 1025.34 1024.66 1023.82 1022.73 1021.94 1021.06 1020.51 1019.67 1019.47 1018.83 1018.44 1018.04 1017.64 1017.17 1016.80 1016.49 1016.06 1015.49 1014.80 1014.44 1014.51 1014.78 1015.33 1015.40 1015.45 1015.38 1014.83 1014.43 1014.13 1013.91 1013.85 1013.85 1014.02 1014.30 1014.31 1013.89 1013.57 1013.08
1028.43 1028.01 1027.50 1026.74 1025.57 1024.87 1024.30 1023.48 1022.64 1022.08 1021.40 1020.67 1020.02 1019.31 1018.71 1018.29 1018.37 1018.16 1017.51 1017.08 1016.67 1015.86 1015.09 1014.37 1014.49 1015.14 1016.03 1016.18 1015.99 1015.69 1014.99 1014.55 1014.13 1013.59 1013.24 1013.09 1013.12 1013.07 1013.12 1013.13 1012.77 1012.23 1011.94
1028.08 1027.52 1027.12 1026.78 1026.40 1025.92 1025.13 1024.22 1023.62 1022.89 1022.05 1021.24 1020.33 1019.93 1019.62 1019.04 1019.20 1018.83 1018.00 1017.57 1017.14 1016.42 1016.05 1015.72 1015.99 1016.29 1016.84 1016.67 1016.76 1016.39 1015.92 1015.62 1014.80 1013.91 1013.24 1012.67 1012.52 1012.26 1012.00 1011.90 1011.68 1011.12 1011.09
1028.18 1027.87 1027.41 1026.93 1026.40 1025.74 1025.10 1024.58 1024.11 1023.76 1022.83 1022.17 1021.52 1021.06 1020.40 1020.04 1019.63 1019.40 1018.75 1018.35 1018.03 1017.32 1017.11 1017.07 1017.30 1017.70 1017.72 1017.58 1017.37 1016.86 1016.52 1016.14 1015.68 1014.70 1013.99 1013.49 1013.01 1012.61 1012.36 1011.97 1011.46 1011.18 1010.91
1028.22 1027.85 1027.65 1027.22 1026.59 1026.06 1025.83 1025.59 1025.22 1024.45 1023.59 1023.03 1022.39 1021.85 1021.48 1020.82 1020.50 1020.07 1019.82 1019.25 1018.96 1018.44 1018.49 1018.43 1018.41 1018.43 1018.45 1018.20 1017.85 1017.28 1016.88 1016.44 1015.64 1015.22 1014.63 1013.89 1013.12 1012.52 1011.92 1011.42 1011.06 1010.91 1010.63
1028.93 1028.67 1028.47 1028.18 1027.81 1027.20 1026.67 1026.30 1025.58 1024.93 1024.09 1023.60 1023.14 1022.73 1022.40 1021.69 1021.45 1020.99 1020.84 1020.70 1020.16 1019.88 1019.71 1019.56 1019.60 1019.60 1019.27 1018.93 1018.59 1017.95 1017.06 1016.37 1015.52 1015.14 1014.57 1014.06 1013.62 1013.16 1012.60 1011.85 1011.21 1010.62 1009.98
1029.58 1029.27 1029.08 1028.83 1028.39 1027.95 1027.45 1026.93 1026.31 1025.75 1025.23 1024.74 1024.14 1023.54 1022.92 1022.64 1022.33 1022.14 1021.93 1021.63 1021.47 1021.20 1020.69 1020.82 1020.64 1020.44 1020.06 1020.08 1019.75 1018.90 1018.04 1017.25 1016.45 1015.77 1015.40 1014.92 1014.44 1013.88 1013.43 1012.88 1012.26 1011.63 1010.99
1029.92 1029.74 1029.48 1029.15 1028.76 1028.35 1027.90 1027.40 1026.84 1026.47 1026.15 1025.77 1025.38 1025.03 1024.56 1023.97 1023.37 1022.96 1022.65 1022.31 1022.06 1021.94 1021.85 1021.87 1021.70 1021.42 1020.96 1020.42 1019.78 1018.74 1018.14 1017.63 1017.12 1016.63 1016.36 1016.09 1015.58 1015.03 1014.47 1013.80 1013.02 1012.31 1011.69
Wind_Speed
11 14 13 13 14 14 15 18 17 17 13 10 10 8 10 9 9 8 11 12 11 11 9 5 6 7 8 9 8 4 5 2 3 5 3 2 2 4 4 3 4 5 5
9 12 13 13 16 18 18 16 17 15 13 11 9 6 9 8 10 9 10 12 12 12 9 7 6 7 6 7 8 6 4 3 6 4 3 2 3 3 5 4 5 7 4
20 9 15 17 17 20 19 18 17 17 14 10 6 4 5 3 6 9 9 11 13 11 11 8 8 7 6 7 7 7 7 4 4 4 5 2 5 1 2 6 5 6 4
26 23 14 11 15 17 18 20 17 19 17 14 12 14 12 10 8 9 9 9 10 10 10 9 8 9 5 6 6 6 4 4 7 1 2 1 4 4 2 2 4 5 7
22 23 20 17 15 16 4 11 17 17 15 19 17 13 12 7 4 7 9 8 8 9 9 8 8 8 6 7 8 6 5 4 6 5 3 1 1 2 3 3 3 2 5
22 21 20 17 17 17 16 13 9 12 13 14 17 16 15 11 8 5 7 7 6 7 8 7 7 8 8 8 8 8 9 9 5 8 4 5 4 3 3 2 3 4 4
19 20 22 20 19 19 17 14 13 11 6 10 10 11 10 8 12 12 8 9 7 7 9 10 8 7 8 7 8 9 9 10 8 9 8 7 6 3 4 3 3 4 4
17 17 18 17 17 17 17 16 14 13 11 11 4 4 5 5 5 7 7 8 8 10 10 11 10 11 10 9 8 7 8 9 10 10 9 8 8 6 4 5 4 3 3
17 17 17 15 15 16 16 15 15 14 13 11 8 10 8 4 6 6 5 6 7 7 10 12 12 11 10 11 11 9 10 9 11 11 10 9 8 7 8 7 6 6 8
17 16 15 15 14 14 12 13 13 12 12 11 9 6 6 6 7 5 6 7 8 7 10 11 12 12 11 11 12 10 10 11 10 10 11 11 10 10 8 8 8 8 10
15 15 14 14 13 13 13 12 11 11 11 11 10 9 7 6 4 7 5 8 7 8 10 11 13 13 12 13 13 13 13 13 14 12 12 15 14 10 9 8 10 9 8
14 14 13 13 13 13 12 13 11 10 9 9 10 10 9 7 5 4 6 5 7 7 10 9 11 12 13 13 13 14 14 15 14 16 14 15 10 13 13 10 13 11 11
14 12 14 13 12 12 12 11 12 12 12 10 9 9 8 7 7 6 6 5 6 8 8 11 11 12 13 14 14 15 14 15 16 16 16 17 15 15 12 12 12 11 10
13 13 11 10 13 14 13 13 12 10 10 10 9 9 9 9 8 8 8 6 5 8 8 9 12 13 14 14 15 14 14 15 15 16 15 16 16 17 16 14 14 12 12
15 12 11 12 13 11 12 12 12 12 10 10 9 10 9 8 8 8 8 8 7 7 9 10 11 12 11 10 13 14 15 16 16 16 16 17 19 20 18 11 13 14 13
14 15 16 17 13 13 12 12 12 13 12 11 11 11 9 9 8 7 8 7 6 8 9 10 11 13 11 13 17 15 14 16 16 16 17 17 16 18 20 20 23 18 13
14 16 16 12 11 11 10 11 12 11 11 11 9 10 10 9 8 7 8 8 8 9 11 13 13 14 15 15 18 20 15 15 15 16 16 15 13 15 16 19 20 21 20
10 14 13 14 15 15 14 13 10 11 10 9 9 10 10 11 8 8 8 11 10 10 11 14 17 16 14 15 19 21 16 16 17 16 16 17 18 16 15 16 18 17 18
5 7 8 12 15 15 15 15 12 12 11 10 11 10 10 10 10 9 8 8 9 10 10 12 14 15 14 9 12 7 11 12 16 15 16 17 17 17 16 17 19 18 16
5 6 6 6 13 16 16 15 14 13 11 11 12 10 9 8 9 9 7 7 7 7 6 5 7 16 10 20 19 15 4 8 9 12 14 16 17 15 16 17 18 19 18
8 9 7 7 9 11 13 14 13 14 12 11 10 9 9 8 8 7 6 7 6 6 8 9 11 12 11 12 19 16 8 7 7 6 8 8 12 17 20 19 18 19 15
7 7 9 10 10 10 12 15 16 15 11 11 11 11 10 8 8 9 8 9 8 9 10 10 8 8 10 14 16 15 11 8 7 7 7 9 15 17 11 9 13 14 9
8 9 10 11 12 13 12 13 13 13 11 10 10 11 10 10 9 10 10 8 10 9 9 8 8 8 9 9 17 14 12 9 7 6 11 17 16 16 12 11 11 7 5
8 9 9 10 11 11 12 11 11 11 10 11 10 9 9 8 9 8 8 8 9 9 8 8 9 8 8 10 10 9 10 12 8 7 6 8 9 8 8 10 9 7 7
6 6 6 7 9 10 10 10 11 11 10 9 9 9 8 9 7 7 9 9 12 12 9 8 7 9 9 11 14 11 10 10 8 8 7 8 9 9 9 9 10 9 9
6 7 7 8 9 10 10 10 10 10 9 9 8 8 7 7 7 7 6 11 13 18 19 18 14 7 14 20 21 18 17 22 16 7 9 8 8 8 8 9 9 9 10
Wind_Direction
201 189 185 193 181 175 178 185 180 183 174 175 178 172 178 179 182 185 186 182 189 189 186 186 189 179 177 179 172 142 135 75 121 99 35 358 258 234 229 214 209 212 208
252 188 174 182 185 186 187 185 185 184 185 176 180 168 182 197 191 184 187 187 191 189 187 180 187 183 183 177 178 151 135 127 185 141 132 179 309 264 224 220 221 226 205
344 250 183 180 186 192 186 191 186 186 180 177 153 163 172 140 189 192 190 195 187 188 189 175 178 175 179 184 191 178 165 150 204 220 144 137 221 161 198 232 210 215 215
0 5 345 215 186 189 190 187 186 183 177 170 163 190 193 195 201 192 190 184 188 184 190 175 176 174 166 173 189 194 171 141 186 288 221 131 147 176 289 234 225 218 217
359 8 354 27 23 16 303 209 183 182 184 176 186 201 194 185 157 184 179 171 168 180 193 188 174 181 177 169 173 185 181 200 174 188 129 210 213 103 132 240 276 234 221
357 2 358 7 26 17 19 10 182 186 180 188 185 196 185 167 154 162 167 168 179 185 192 178 183 181 182 181 186 184 191 193 198 208 200 183 178 191 167 204 223 219 246
353 357 0 5 13 15 15 21 27 28 185 188 189 197 210 198 179 175 172 171 178 194 194 185 188 189 188 186 182 186 194 195 200 195 209 219 218 170 175 177 216 238 246
349 358 359 360 4 7 13 17 20 27 27 47 317 211 231 207 209 205 183 185 191 197 186 193 201 205 191 190 185 200 208 207 204 201 208 213 221 210 193 192 172 278 271
344 352 357 358 359 4 8 12 10 16 21 18 34 34 9 237 217 208 209 204 194 186 187 194 202 206 201 198 194 204 210 206 209 213 211 217 224 212 216 218 209 222 267
345 347 355 356 359 359 359 9 10 8 9 4 0 16 20 22 347 214 204 218 219 203 184 193 204 206 206 202 201 212 215 209 218 218 213 221 226 222 214 214 226 228 235
342 346 350 354 353 357 358 1 4 2 7 354 348 352 339 5 12 341 219 206 217 217 208 200 204 211 211 209 205 213 217 217 224 224 220 225 226 231 229 224 231 226 226
343 342 347 352 354 355 353 352 354 358 358 349 341 342 328 334 343 354 348 264 215 211 225 215 214 214 213 218 213 217 218 220 225 227 225 232 230 232 230 230 233 233 225
344 348 349 355 345 349 351 346 348 347 345 341 334 322 318 326 311 325 309 305 296 222 215 231 223 219 217 219 221 219 223 227 228 230 227 230 227 234 230 229 233 234 232
352 353 333 357 356 348 343 345 338 337 332 327 325 312 299 302 304 303 291 288 284 286 218 222 232 230 221 217 219 222 226 227 231 233 233 235 230 227 232 233 236 238 238
7 339 337 2 355 345 341 331 333 329 323 317 313 303 296 286 277 276 287 286 270 263 254 228 229 237 234 221 218 221 226 228 232 234 235 235 234 229 231 226 233 237 237
348 346 347 3 342 340 335 334 332 322 315 302 303 302 299 290 282 271 266 259 282 293 282 251 240 239 236 230 220 219 227 228 229 234 235 240 236 234 229 223 231 232 232
334 344 357 349 329 340 327 337 323 308 299 295 301 304 296 291 290 289 283 286 288 287 285 272 253 246 244 227 230 223 230 235 236 237 239 241 240 237 240 233 237 241 236
327 332 323 339 354 353 351 340 321 311 315 316 316 323 306 302 293 283 280 276 271 266 271 272 253 251 249 227 228 232 231 241 244 245 247 246 244 240 234 238 242 235 235
255 271 321 338 341 349 345 343 341 338 342 335 335 320 309 300 296 292 286 285 273 266 261 263 249 248 252 336 354 297 261 249 250 251 247 245 248 249 234 242 246 247 247
251 262 290 333 1 354 349 348 350 346 348 340 322 327 348 352 344 324 326 327 310 289 312 286 34 45 81 40 25 6 261 255 264 261 255 246 250 256 238 237 244 250 254
335 348 337 350 349 349 347 355 352 353 342 335 355 360 9 20 6 348 5 355 350 25 21 48 44 44 39 31 18 14 10 357 315 311 308 290 264 246 245 235 249 251 250
341 3 4 358 347 354 1 360 1 343 345 358 5 6 21 25 28 20 22 25 21 39 38 37 38 29 21 23 8 0 359 343 333 316 309 308 320 315 294 292 272 279 275
357 0 4 354 354 359 5 359 347 340 351 359 7 7 14 26 31 34 35 36 35 40 36 36 30 20 15 8 1 357 352 343 335 318 305 300 305 304 303 288 276 279 265
1 3 3 359 354 351 354 353 349 355 5 2 5 4 359 19 33 36 44 41 39 43 40 34 30 17 16 11 358 355 357 348 353 340 337 353 352 340 332 338 328 308 284
352 357 360 351 355 354 351 353 354 0 7 12 14 13 12 12 25 47 41 46 47 41 41 27 27 22 21 9 357 3 6 357 349 351 9 10 6 1 353 347 343 336 331
354 358 354 355 353 354 355 356 5 11 10 15 15 14 11 15 24 29 37 58 62 46 43 39 36 24 24 14 10 12 16 13 360 23 16 6 1 357 348 344 338 334 330